Time,TemperatureF,DewpointF,PressureIn,WindDirection,WindDirectionDegrees,WindSpeedMPH,WindSpeedGustMPH,Humidity,HourlyPrecipIn,Conditions,Clouds,dailyrainin,SoftwareType,DateUTC
2013-05-26 00:02:00,60.0,-99.9,-100.00,SW,236,2.0,4.0,-999,-99.99,,,-99.99,,2013-05-26 07:02:00,
2013-05-26 00:10:00,58.0,-99.9,-100.00,SW,235,4.0,4.0,-999,-99.99,,,-99.99,,2013-05-26 07:10:00,
2013-05-26 00:32:00,58.0,-99.9,-100.00,WSW,244,2.0,4.0,-999,-99.99,,,-99.99,,2013-05-26 07:32:00,
2013-05-26 00:42:00,58.0,-99.9,-100.00,WSW,244,2.0,4.0,-999,-99.99,,,-99.99,,2013-05-26 07:42:00,
2013-05-26 00:52:00,58.0,-99.9,-100.00,SW,235,4.0,4.0,-999,-99.99,,,-99.99,,2013-05-26 07:52:00,
2013-05-26 01:02:00,58.0,-99.9,-100.00,SW,235,4.0,4.0,-999,-99.99,,,-99.99,,2013-05-26 08:02:00,
2013-05-26 01:20:00,56.0,-99.9,-100.00,SW,227,2.0,5.0,-999,-99.99,,,-99.99,,2013-05-26 08:20:00,
2013-05-26 01:22:00,56.0,-99.9,-100.00,SW,233,2.0,5.0,-999,-99.99,,,-99.99,,2013-05-26 08:22:00,
2013-05-26 01:32:00,56.0,-99.9,-100.00,West,272,2.0,4.0,-999,-99.99,,,-99.99,,2013-05-26 08:32:00,
2013-05-26 01:42:00,56.0,-99.9,-100.00,West,272,2.0,4.0,-999,-99.99,,,-99.99,,2013-05-26 08:42:00,
2013-05-26 01:53:00,56.0,-99.9,-100.00,West,272,2.0,4.0,-999,-99.99,,,-99.99,,2013-05-26 08:53:00,
2013-05-26 02:02:00,56.0,-99.9,-100.00,SW,227,2.0,5.0,-999,-99.99,,,-99.99,,2013-05-26 09:02:00,
2013-05-26 02:11:00,56.0,-99.9,-100.00,SW,227,2.0,5.0,-999,-99.99,,,-99.99,,2013-05-26 09:11:00,
2013-05-26 02:34:00,55.0,-99.9,-100.00,SSW,208,4.0,4.0,-999,-99.99,,,-99.99,,2013-05-26 09:34:00,
2013-05-26 02:43:00,55.0,-99.9,-100.00,SSW,208,4.0,4.0,-999,-99.99,,,-99.99,,2013-05-26 09:43:00,
2013-05-26 02:53:00,55.0,-99.9,-100.00,SSW,208,4.0,4.0,-999,-99.99,,,-99.99,,2013-05-26 09:53:00,
2013-05-26 03:33:00,56.0,-99.9,-100.00,WNW,297,1.0,5.0,-999,-99.99,,,-99.99,,2013-05-26 10:33:00,
2013-05-26 03:42:00,56.0,-99.9,-100.00,WNW,297,1.0,5.0,-999,-99.99,,,-99.99,,2013-05-26 10:42:00,
2013-05-26 03:52:00,56.0,-99.9,-100.00,WNW,297,1.0,5.0,-999,-99.99,,,-99.99,,2013-05-26 10:52:00,
2013-05-26 04:33:00,54.0,-99.9,-100.00,West,275,6.0,13.0,-999,-99.99,,,-99.99,,2013-05-26 11:33:00,
2013-05-26 04:43:00,54.0,-99.9,-100.00,West,275,6.0,13.0,-999,-99.99,,,-99.99,,2013-05-26 11:43:00,
2013-05-26 04:52:00,54.0,-99.9,-100.00,West,275,6.0,13.0,-999,-99.99,,,-99.99,,2013-05-26 11:52:00,
2013-05-26 05:22:00,54.0,-99.9,-100.00,SSW,198,1.0,2.0,-999,-99.99,,,-99.99,,2013-05-26 12:22:00,
2013-05-26 05:32:00,55.0,-99.9,-100.00,West,275,0.0,2.0,-999,-99.99,,,-99.99,,2013-05-26 12:32:00,
2013-05-26 05:42:00,55.0,-99.9,-100.00,West,275,0.0,2.0,-999,-99.99,,,-99.99,,2013-05-26 12:42:00,
2013-05-26 05:52:00,55.0,-99.9,-100.00,West,275,0.0,2.0,-999,-99.99,,,-99.99,,2013-05-26 12:52:00,
2013-05-26 06:22:00,54.0,-99.9,-100.00,West,260,0.0,2.0,-999,-99.99,,,-99.99,,2013-05-26 13:22:00,
2013-05-26 06:32:00,55.0,-99.9,-100.00,SSW,200,1.0,1.0,-999,-99.99,,,-99.99,,2013-05-26 13:32:00,
2013-05-26 06:42:00,55.0,-99.9,-100.00,SSW,200,1.0,1.0,-999,-99.99,,,-99.99,,2013-05-26 13:42:00,
2013-05-26 06:52:00,55.0,-99.9,-100.00,SSW,200,1.0,1.0,-999,-99.99,,,-99.99,,2013-05-26 13:52:00,
2013-05-26 07:32:00,52.0,-99.9,-100.00,SW,236,2.0,3.0,-999,-99.99,,,-99.99,,2013-05-26 14:32:00,
2013-05-26 07:42:00,52.0,-99.9,-100.00,SW,236,2.0,3.0,-999,-99.99,,,-99.99,,2013-05-26 14:42:00,
2013-05-26 07:52:00,52.0,-99.9,-100.00,SW,236,2.0,3.0,-999,-99.99,,,-99.99,,2013-05-26 14:52:00,
2013-05-26 08:22:00,53.0,-99.9,-100.00,West,269,1.0,3.0,-999,-99.99,,,-99.99,,2013-05-26 15:22:00,
2013-05-26 08:33:00,55.0,-99.9,-100.00,West,260,4.0,4.0,-999,-99.99,,,-99.99,,2013-05-26 15:33:00,
2013-05-26 08:43:00,55.0,-99.9,-100.00,West,260,4.0,4.0,-999,-99.99,,,-99.99,,2013-05-26 15:43:00,
2013-05-26 08:53:00,55.0,-99.9,-100.00,West,260,4.0,4.0,-999,-99.99,,,-99.99,,2013-05-26 15:53:00,
2013-05-26 09:23:00,54.0,-99.9,-100.00,SW,222,2.0,3.0,-999,-99.99,,,-99.99,,2013-05-26 16:23:00,
2013-05-26 09:33:00,56.0,-99.9,-100.00,NE,38,0.0,3.0,-999,-99.99,,,-99.99,,2013-05-26 16:33:00,
2013-05-26 09:43:00,56.0,-99.9,-100.00,NE,38,0.0,3.0,-999,-99.99,,,-99.99,,2013-05-26 16:43:00,
2013-05-26 09:53:00,55.0,-99.9,-100.00,NNW,346,1.0,4.0,-999,-99.99,,,-99.99,,2013-05-26 16:53:00,
2013-05-26 10:02:00,55.0,-99.9,-100.00,NNW,346,1.0,4.0,-999,-99.99,,,-99.99,,2013-05-26 17:02:00,
2013-05-26 10:32:00,57.0,-99.9,-100.00,South,180,2.0,4.0,-999,-99.99,,,-99.99,,2013-05-26 17:32:00,
2013-05-26 10:42:00,57.0,-99.9,-100.00,South,180,2.0,4.0,-999,-99.99,,,-99.99,,2013-05-26 17:42:00,
2013-05-26 10:52:00,57.0,-99.9,-100.00,South,180,2.0,4.0,-999,-99.99,,,-99.99,,2013-05-26 17:52:00,
2013-05-26 11:01:00,60.0,-99.9,-100.00,WSW,241,11.0,11.0,-999,-99.99,,,-99.99,,2013-05-26 18:01:00,
2013-05-26 11:12:00,60.0,-99.9,-100.00,WSW,241,11.0,11.0,-999,-99.99,,,-99.99,,2013-05-26 18:12:00,
2013-05-26 11:22:00,58.0,-99.9,-100.00,West,266,4.0,10.0,-999,-99.99,,,-99.99,,2013-05-26 18:22:00,
2013-05-26 11:32:00,61.0,-99.9,-100.00,WSW,253,8.0,10.0,-999,-99.99,,,-99.99,,2013-05-26 18:32:00,
2013-05-26 11:42:00,61.0,-99.9,-100.00,WSW,253,8.0,10.0,-999,-99.99,,,-99.99,,2013-05-26 18:42:00,
2013-05-26 11:52:00,61.0,-99.9,-100.00,WSW,253,8.0,10.0,-999,-99.99,,,-99.99,,2013-05-26 18:52:00,
2013-05-26 12:32:00,62.0,-99.9,-100.00,West,277,8.0,15.0,-999,-99.99,,,-99.99,,2013-05-26 19:32:00,
2013-05-26 12:42:00,62.0,-99.9,-100.00,West,277,8.0,15.0,-999,-99.99,,,-99.99,,2013-05-26 19:42:00,
2013-05-26 12:53:00,62.0,-99.9,-100.00,West,277,8.0,15.0,-999,-99.99,,,-99.99,,2013-05-26 19:53:00,
2013-05-26 13:32:00,65.0,-99.9,-100.00,West,268,3.0,10.0,-999,-99.99,,,-99.99,,2013-05-26 20:32:00,
2013-05-26 13:42:00,65.0,-99.9,-100.00,West,268,3.0,10.0,-999,-99.99,,,-99.99,,2013-05-26 20:42:00,
2013-05-26 13:53:00,65.0,-99.9,-100.00,West,268,3.0,10.0,-999,-99.99,,,-99.99,,2013-05-26 20:53:00,
2013-05-26 14:33:00,66.0,-99.9,-100.00,SW,227,8.0,12.0,-999,-99.99,,,-99.99,,2013-05-26 21:33:00,
2013-05-26 14:43:00,66.0,-99.9,-100.00,SW,227,8.0,12.0,-999,-99.99,,,-99.99,,2013-05-26 21:43:00,
2013-05-26 14:53:00,66.0,-99.9,-100.00,SW,227,8.0,12.0,-999,-99.99,,,-99.99,,2013-05-26 21:53:00,
2013-05-26 15:23:00,65.0,-99.9,-100.00,WNW,292,16.0,22.0,-999,-99.99,,,-99.99,,2013-05-26 22:23:00,
2013-05-26 15:33:00,65.0,-99.9,-100.00,West,265,10.0,15.0,-999,-99.99,,,-99.99,,2013-05-26 22:33:00,
2013-05-26 15:43:00,65.0,-99.9,-100.00,West,265,10.0,15.0,-999,-99.99,,,-99.99,,2013-05-26 22:43:00,
2013-05-26 15:53:00,65.0,-99.9,-100.00,WSW,253,18.0,18.0,-999,-99.99,,,-99.99,,2013-05-26 22:53:00,
2013-05-26 16:02:00,65.0,-99.9,-100.00,West,275,16.0,17.0,-999,-99.99,,,-99.99,,2013-05-26 23:02:00,
2013-05-26 16:12:00,65.0,-99.9,-100.00,West,275,16.0,17.0,-999,-99.99,,,-99.99,,2013-05-26 23:12:00,
2013-05-26 16:22:00,66.0,-99.9,-100.00,West,277,10.0,20.0,-999,-99.99,,,-99.99,,2013-05-26 23:22:00,
2013-05-26 16:32:00,66.0,-99.9,-100.00,West,275,11.0,22.0,-999,-99.99,,,-99.99,,2013-05-26 23:32:00,
2013-05-26 16:43:00,66.0,-99.9,-100.00,West,275,11.0,22.0,-999,-99.99,,,-99.99,,2013-05-26 23:43:00,
2013-05-26 16:52:00,66.0,-99.9,-100.00,West,275,11.0,22.0,-999,-99.99,,,-99.99,,2013-05-26 23:52:00,
2013-05-26 17:00:00,64.0,-99.9,-100.00,West,269,9.0,22.0,-999,-99.99,,,-99.99,,2013-05-27 00:00:00,
2013-05-26 17:02:00,65.0,-99.9,-100.00,West,269,21.0,21.0,-999,-99.99,,,-99.99,,2013-05-27 00:02:00,
2013-05-26 17:11:00,65.0,-99.9,-100.00,West,269,21.0,21.0,-999,-99.99,,,-99.99,,2013-05-27 00:11:00,
2013-05-26 17:52:00,64.0,-99.9,-100.00,West,269,9.0,22.0,-999,-99.99,,,-99.99,,2013-05-27 00:52:00,
2013-05-26 18:32:00,64.0,-99.9,-100.00,West,262,8.0,12.0,-999,-99.99,,,-99.99,,2013-05-27 01:32:00,
2013-05-26 18:42:00,64.0,-99.9,-100.00,West,262,8.0,12.0,-999,-99.99,,,-99.99,,2013-05-27 01:42:00,
2013-05-26 18:52:00,64.0,-99.9,-100.00,West,262,8.0,12.0,-999,-99.99,,,-99.99,,2013-05-27 01:52:00,
2013-05-26 19:32:00,62.0,-99.9,-100.00,WSW,255,12.0,18.0,-999,-99.99,,,-99.99,,2013-05-27 02:32:00,
2013-05-26 19:43:00,62.0,-99.9,-100.00,WSW,255,12.0,18.0,-999,-99.99,,,-99.99,,2013-05-27 02:43:00,
2013-05-26 19:52:00,62.0,-99.9,-100.00,WSW,255,12.0,18.0,-999,-99.99,,,-99.99,,2013-05-27 02:52:00,
2013-05-26 20:10:00,60.0,-99.9,-100.00,West,266,4.0,9.0,-999,-99.99,,,-99.99,,2013-05-27 03:10:00,
2013-05-26 20:33:00,60.0,-99.9,-100.00,West,275,9.0,12.0,-999,-99.99,,,-99.99,,2013-05-27 03:33:00,
2013-05-26 20:43:00,60.0,-99.9,-100.00,West,275,9.0,12.0,-999,-99.99,,,-99.99,,2013-05-27 03:43:00,
2013-05-26 20:54:00,60.0,-99.9,-100.00,West,266,4.0,9.0,-999,-99.99,,,-99.99,,2013-05-27 03:54:00,
2013-05-26 21:03:00,60.0,-99.9,-100.00,West,266,4.0,9.0,-999,-99.99,,,-99.99,,2013-05-27 04:03:00,
2013-05-26 21:33:00,60.0,-99.9,-100.00,West,265,3.0,6.0,-999,-99.99,,,-99.99,,2013-05-27 04:33:00,
2013-05-26 21:43:00,60.0,-99.9,-100.00,West,265,3.0,6.0,-999,-99.99,,,-99.99,,2013-05-27 04:43:00,
2013-05-26 21:53:00,60.0,-99.9,-100.00,West,265,3.0,6.0,-999,-99.99,,,-99.99,,2013-05-27 04:53:00,
2013-05-26 22:22:00,62.0,-99.9,-100.00,West,270,4.0,11.0,-999,-99.99,,,-99.99,,2013-05-27 05:22:00,
2013-05-26 22:32:00,61.0,-99.9,-100.00,WSW,248,5.0,7.0,-999,-99.99,,,-99.99,,2013-05-27 05:32:00,
2013-05-26 22:42:00,61.0,-99.9,-100.00,WSW,248,5.0,7.0,-999,-99.99,,,-99.99,,2013-05-27 05:42:00,
2013-05-26 22:52:00,62.0,-99.9,-100.00,West,277,5.0,7.0,-999,-99.99,,,-99.99,,2013-05-27 05:52:00,
2013-05-26 23:32:00,58.0,-99.9,-100.00,WSW,247,5.0,9.0,-999,-99.99,,,-99.99,,2013-05-27 06:32:00,
2013-05-26 23:42:00,58.0,-99.9,-100.00,WSW,247,5.0,9.0,-999,-99.99,,,-99.99,,2013-05-27 06:42:00,
2013-05-26 23:52:00,58.0,-99.9,-100.00,WSW,247,5.0,9.0,-999,-99.99,,,-99.99,,2013-05-27 06:52:00,